Weather History for KBVO - March, 2014

Change the Weather History Date:

Sunday, March 30, 2014

  Actual Average Record
Temperature  
Mean Temperature 54 °F -  
Max Temperature 75 °F 65 °F 87 °F (1968)
Min Temperature 34 °F 41 °F 18 °F (1964)
Degree Days  
Heating Degree Days 10    
Growing Degree Days 4 (Base 50)    
Moisture  
Dew Point 34 °F    
Average Humidity 50    
Maximum Humidity 92    
Minimum Humidity 22    
Precipitation  
Precipitation 0.00 in - - ()
Sea Level Pressure  
Sea Level Pressure 30.03 in    
Wind  
Wind Speed 8 mph (South)    
Max Wind Speed 22 mph    
Max Gust Speed 30 mph    
Visibility 8 miles    
Events      
Averages and records for this station are not official NWS values.
T = Trace of Precipitation, MM = Missing Value Source: NWS Daily Summary

Daily Weather History Graph

Daily Weather History Graph

Search for Another Location

Airport or City:

Trip Planner

Search our weather history database for the weather conditions in past years. The results will help you decide how hot, cold, wet, or windy it might be!

Date:

Astronomy

Mar. 30, 2014 Rise Set
Actual Time 7:12 AM CDT 7:44 PM CDT
Civil Twilight 6:46 AM CDT 8:10 PM CDT
Nautical Twilight 6:16 AM CDT 8:41 PM CDT
Astronomical Twilight 5:44 AM CDT 9:12 PM CDT
Moon 6:59 AM CDT (3/30) 7:57 PM CDT (3/30)
Length of Visible Light 13h 23m
Length of Day
12h 31m
Waning Crescent, 0% of the Moon is Illuminated
Mar 30
Waning Crescent
Mar 30
New
Apr 7
First Quarter
Apr 15
Full
Apr 22
Last Quarter

Hourly Weather History & Observations

Time (CDT) Temp. Windchill Dew Point Humidity Pressure Visibility Wind Dir Wind Speed Gust Speed Precip Events Conditions
12:53 AM 36.0 °F - 33.1 °F 89% 30.21 in 5.0 mi Calm Calm - N/A   Clear
1:53 AM 36.0 °F - 33.1 °F 89% 30.20 in 4.0 mi Calm Calm - N/A   Clear
2:53 AM 34.0 °F - 32.0 °F 92% 30.18 in 4.0 mi Calm Calm - N/A   Clear
3:53 AM 34.0 °F 31.0 °F 30.9 °F 89% 30.17 in 5.0 mi South 3.5 mph - N/A   Clear
4:53 AM 34.0 °F - 32.0 °F 92% 30.15 in 5.0 mi Calm Calm - N/A   Clear
5:53 AM 39.0 °F 35.7 °F 34.0 °F 82% 30.14 in 6.0 mi SSE 4.6 mph - N/A   Haze
6:53 AM 39.0 °F 34.8 °F 34.0 °F 82% 30.14 in 7.0 mi South 5.8 mph - N/A   Clear
7:53 AM 42.1 °F 37.7 °F 36.0 °F 79% 30.15 in 7.0 mi SE 6.9 mph - N/A   Clear
8:53 AM 48.9 °F - 37.0 °F 64% 30.16 in 10.0 mi South 11.5 mph - N/A   Clear
9:53 AM 57.9 °F - 35.1 °F 42% 30.15 in 10.0 mi South 12.7 mph - N/A   Clear
10:53 AM 62.1 °F - 34.0 °F 35% 30.14 in 10.0 mi South 17.3 mph 28.8 mph N/A   Clear
11:53 AM 66.9 °F - 34.0 °F 30% 30.11 in 10.0 mi South 16.1 mph 25.3 mph N/A   Clear
12:53 PM 69.1 °F - 35.1 °F 29% 30.05 in 10.0 mi South 16.1 mph 24.2 mph N/A   Clear
1:53 PM 73.9 °F - 33.1 °F 22% 30.01 in 10.0 mi South 19.6 mph 24.2 mph N/A   Clear
2:53 PM 73.0 °F - 35.1 °F 25% 29.97 in 10.0 mi SSE 17.3 mph 27.6 mph N/A   Clear
3:53 PM 75.9 °F - 35.1 °F 23% 29.93 in 10.0 mi SSE 17.3 mph 25.3 mph N/A   Clear
4:53 PM 73.9 °F - 33.1 °F 22% 29.91 in 10.0 mi SSE 21.9 mph 29.9 mph N/A   Clear
5:53 PM 73.0 °F - 34.0 °F 24% 29.88 in 10.0 mi South 18.4 mph 28.8 mph N/A   Clear
6:53 PM 71.1 °F - 35.1 °F 27% 29.87 in 10.0 mi SSE 17.3 mph 28.8 mph N/A   Clear
7:53 PM 68.0 °F - 36.0 °F 31% 29.86 in 10.0 mi South 15.0 mph - N/A   Clear
8:53 PM 66.0 °F - 36.0 °F 33% 29.86 in 10.0 mi South 15.0 mph 23.0 mph N/A   Clear
9:53 PM 64.9 °F - 36.0 °F 34% 29.86 in 10.0 mi South 12.7 mph 21.9 mph N/A   Clear
10:53 PM 64.0 °F - 37.0 °F 37% 29.86 in 10.0 mi South 15.0 mph 20.7 mph N/A   Clear
11:53 PM 62.1 °F - 37.0 °F 39% 29.86 in 10.0 mi South 15.0 mph 23.0 mph N/A   Clear